sat.trackr.live / text

‹ back to catalog

ONEWEB-0528

NORAD 54643 · 2022-166B

PAYLOAD ACTIVE UNKNOWN

§ Identity

Operator
Country
UK
Launch date
2022-12-08
Launch site
AFETR
Launch vehicle
Mass (kg)
RCS (m²)

Purposes: comms

External: N2YO · Heavens-Above · Gunter

§ Orbital elements

Epoch: 2026-09-20T04:14:07.615392Z

Period
108.94 min
Inclination
87.9279°
Eccentricity
0.0002016
Mean motion
13.21826005 rev/d
Perigee alt
1,176.2 km
Apogee alt
1,179.3 km
Semi-major
7,555.9 km
B*
1.0948e-5
RAAN
225.0910°
Arg perigee
73.8448°
Mean anomaly
286.2907°
Rev number
18,409

§ Raw data

ONEWEB-05281 54643U 22166B   26263.17647703  .00000018  00000+0  10948-4 0  99972 54643  87.9279 225.0910 0002016  73.8448 286.2907 13.21826005184092

JSON: /api/v1/satellites/54643 · /tle

For live sub-satellite position, see the globe view (requires WebGL).

§ Visibility from observer

Set your observer location to see the next 7 days of passes ≥ 10°. The values pass through the URL so the page stays shareable.

No JS? Fill the form by hand. The geolocation button needs JavaScript.